When you browse on this site, cookies collect data to enhance your experience and personalize the content and advertising you see.
Visit our Privacy Policy to learn more. By continuing to use the site, you agree to this use of cookies and data.
  • In Austria
  • List of Countries
  • For 7 days
  • Water Temperature
  • Satellite Maps
  • Weather Map
  • News
  • Weather Widgets
  • user-avatar
    Login

    Hourly Weather Rawson

    Today, 19 February, Tuesday

    Time Temperature Precipitation Wind Pressure Humidity
    00:00 +15°C° 0 mm 6 mps 757 mmHg 70%
    01:00 +15°C° 0 mm 4 mps 757 mmHg 70%
    02:00 +16°C° 0 mm 3 mps 756 mmHg 70%
    03:00 +16°C° 0 mm 3 mps 756 mmHg 71%
    04:00 +16°C° 0 mm 3 mps 756 mmHg 71%
    05:00 +16°C° 0 mm 3 mps 755 mmHg 72%
    06:00 +17°C° 0 mm 4 mps 755 mmHg 68%
    07:00 +17°C° 0 mm 5 mps 754 mmHg 63%
    08:00 +19°C° 0 mm 6 mps 754 mmHg 59%
    09:00 +21°C° 0 mm 6 mps 753 mmHg 53%
    10:00 +23°C° 0 mm 6 mps 753 mmHg 48%
    11:00 +26°C° 0 mm 6 mps 752 mmHg 42%
    12:00 +27°C° 0 mm 5 mps 752 mmHg 35%
    13:00 +29°C° 0 mm 5 mps 751 mmHg 28%
    14:00 +30°C° 0 mm 5 mps 750 mmHg 20%
    15:00 +32°C° 0 mm 5 mps 750 mmHg 19%
    16:00 +32°C° 0 mm 5 mps 749 mmHg 17%
    17:00 +32°C° 0 mm 5 mps 749 mmHg 15%
    18:00 +30°C° 0 mm 4 mps 749 mmHg 16%
    19:00 +29°C° 0 mm 3 mps 749 mmHg 17%
    20:00 +28°C° 0 mm 3 mps 749 mmHg 17%
    21:00 +27°C° 0 mm 4 mps 749 mmHg 18%
    22:00 +26°C° 0 mm 5 mps 750 mmHg 18%
    23:00 +26°C° 0 mm 6 mps 750 mmHg 19%

    Tomorrow, 20 February, Wednesday

    Time Temperature Precipitation Wind Pressure Humidity
    00:00 +24°C° 0 mm 6 mps 751 mmHg 21%
    01:00 +23°C° 0 mm 5 mps 751 mmHg 24%
    02:00 +22°C° 0 mm 5 mps 751 mmHg 27%
    03:00 +21°C° 0 mm 5 mps 751 mmHg 28%
    04:00 +21°C° 0 mm 5 mps 751 mmHg 29%
    05:00 +21°C° 0 mm 5 mps 751 mmHg 30%
    06:00 +21°C° 0 mm 6 mps 751 mmHg 29%
    07:00 +22°C° 0 mm 7 mps 752 mmHg 28%
    08:00 +23°C° 0 mm 8 mps 752 mmHg 27%
    09:00 +24°C° 0 mm 8 mps 752 mmHg 26%
    10:00 +24°C° 0 mm 8 mps 752 mmHg 25%
    11:00 +26°C° 0 mm 8 mps 752 mmHg 25%
    12:00 +26°C° 0 mm 8 mps 751 mmHg 25%
    13:00 +26°C° 0 mm 8 mps 751 mmHg 26%
    14:00 +26°C° 0 mm 8 mps 751 mmHg 26%
    15:00 +26°C° 0 mm 8 mps 751 mmHg 26%
    16:00 +26°C° 0 mm 8 mps 750 mmHg 25%
    17:00 +26°C° 0 mm 8 mps 750 mmHg 25%
    18:00 +26°C° 0 mm 7 mps 751 mmHg 23%
    19:00 +24°C° 0 mm 6 mps 751 mmHg 22%
    20:00 +25°C° 0 mm 5 mps 752 mmHg 20%
    21:00 +23°C° 0 mm 5 mps 752 mmHg 26%
    22:00 +21°C° 0 mm 4 mps 753 mmHg 31%
    23:00 +20°C° 0 mm 4 mps 754 mmHg 36%

    Day after tomorrow, 21 February, Thursday

    Time Temperature Precipitation Wind Pressure Humidity
    00:00 +19°C° 0 mm 3 mps 754 mmHg 41%
    01:00 +18°C° 0 mm 3 mps 754 mmHg 45%
    02:00 +17°C° 0 mm 3 mps 755 mmHg 49%
    03:00 +17°C° 0 mm 4 mps 755 mmHg 42%
    04:00 +15°C° 0 mm 6 mps 755 mmHg 35%
    05:00 +15°C° 0 mm 8 mps 756 mmHg 28%
    06:00 +15°C° 0 mm 9 mps 756 mmHg 28%
    07:00 +15°C° 0 mm 9 mps 757 mmHg 28%
    08:00 +15°C° 0 mm 9 mps 758 mmHg 28%
    09:00 +16°C° 0 mm 8 mps 758 mmHg 26%
    10:00 +17°C° 0 mm 8 mps 759 mmHg 24%
    11:00 +18°C° 0 mm 7 mps 759 mmHg 22%
    12:00 +18°C° 0 mm 7 mps 760 mmHg 21%
    13:00 +20°C° 0 mm 7 mps 760 mmHg 19%
    14:00 +21°C° 0 mm 7 mps 760 mmHg 18%
    15:00 +18°C° 0 mm 7 mps 760 mmHg 28%
    16:00 +17°C° 0 mm 8 mps 760 mmHg 37%
    17:00 +16°C° 0 mm 8 mps 760 mmHg 47%
    18:00 +15°C° 0 mm 7 mps 761 mmHg 47%
    19:00 +14°C° 0 mm 7 mps 761 mmHg 47%
    20:00 +14°C° 0 mm 6 mps 762 mmHg 48%
    21:00 +14°C° 0 mm 5 mps 762 mmHg 49%
    22:00 +14°C° 0 mm 5 mps 762 mmHg 49%
    23:00 +14°C° 0 mm 5 mps 763 mmHg 50%

    22 February, Friday

    Time Temperature Precipitation Wind Pressure Humidity
    00:00 +13°C° 0 mm 4 mps 763 mmHg 52%
    01:00 +13°C° 0 mm 4 mps 763 mmHg 53%
    02:00 +13°C° 0 mm 4 mps 763 mmHg 55%
    03:00 +13°C° 0 mm 4 mps 762 mmHg 55%
    04:00 +13°C° 0 mm 5 mps 762 mmHg 56%
    05:00 +13°C° 0 mm 5 mps 762 mmHg 57%
    06:00 +14°C° 0 mm 6 mps 762 mmHg 56%
    07:00 +15°C° 0 mm 8 mps 762 mmHg 54%
    08:00 +17°C° 0 mm 9 mps 762 mmHg 53%
    09:00 +18°C° 0 mm 9 mps 762 mmHg 47%
    10:00 +21°C° 0 mm 10 mps 761 mmHg 42%
    11:00 +23°C° 0 mm 10 mps 761 mmHg 37%
    12:00 +24°C° 0 mm 9 mps 760 mmHg 31%
    13:00 +27°C° 0 mm 9 mps 759 mmHg 26%
    14:00 +28°C° 0 mm 8 mps 758 mmHg 20%
    15:00 +28°C° 0 mm 7 mps 757 mmHg 17%
    16:00 +29°C° 0 mm 6 mps 757 mmHg 15%
    17:00 +29°C° 0 mm 5 mps 756 mmHg 12%
    18:00 +27°C° 0 mm 5 mps 755 mmHg 18%
    19:00 +25°C° 0 mm 5 mps 755 mmHg 24%
    20:00 +22°C° 0 mm 4 mps 755 mmHg 30%
    21:00 +22°C° 0 mm 5 mps 754 mmHg 38%
    22:00 +22°C° 0 mm 6 mps 754 mmHg 46%
    23:00 +21°C° 0 mm 7 mps 754 mmHg 55%

    23 February, Saturday

    Time Temperature Precipitation Wind Pressure Humidity
    00:00 +21°C° 0 mm 6 mps 753 mmHg 48%
    01:00 +21°C° 0 mm 6 mps 753 mmHg 42%
    02:00 +20°C° 0 mm 6 mps 752 mmHg 35%
    03:00 +18°C° 0 mm 8 mps 752 mmHg 29%
    04:00 +17°C° 0 mm 9 mps 752 mmHg 23%
    05:00 +16°C° 0 mm 11 mps 752 mmHg 16%
    06:00 +16°C° 0 mm 11 mps 753 mmHg 21%
    07:00 +15°C° 0 mm 12 mps 753 mmHg 25%
    08:00 +15°C° 0 mm 13 mps 753 mmHg 29%
    09:00 +17°C° 0 mm 13 mps 753 mmHg 27%
    10:00 +19°C° 0 mm 12 mps 753 mmHg 26%
    11:00 +21°C° 0 mm 11 mps 753 mmHg 24%
    12:00 +22°C° 0 mm 11 mps 753 mmHg 23%
    13:00 +23°C° 0 mm 10 mps 753 mmHg 21%
    14:00 +23°C° 0 mm 9 mps 752 mmHg 20%
    15:00 +23°C° 0 mm 8 mps 751 mmHg 21%
    16:00 +23°C° 0 mm 7 mps 751 mmHg 23%
    17:00 +22°C° 0 mm 6 mps 750 mmHg 24%
    18:00 +21°C° 0 mm 6 mps 750 mmHg 30%
    19:00 +19°C° 0 mm 6 mps 750 mmHg 37%
    20:00 +17°C° 0 mm 6 mps 750 mmHg 43%
    21:00 +18°C° 0 mm 4 mps 751 mmHg 44%
    22:00 +17°C° 0 mm 3 mps 751 mmHg 44%
    23:00 +17°C° 0 mm 2 mps 751 mmHg 44%

    24 February, Sunday

    Time Temperature Precipitation Wind Pressure Humidity
    00:00 +15°C° 0.1 mm 5 mps 751 mmHg 44%
    01:00 +15°C° 0.1 mm 7 mps 751 mmHg 44%
    02:00 +13°C° 0.1 mm 9 mps 751 mmHg 43%
    03:00 +13°C° 0 mm 10 mps 752 mmHg 41%
    04:00 +13°C° 0 mm 10 mps 752 mmHg 39%
    05:00 +13°C° 0 mm 11 mps 752 mmHg 36%
    06:00 +13°C° 0 mm 11 mps 753 mmHg 38%
    07:00 +13°C° 0 mm 12 mps 753 mmHg 40%
    08:00 +14°C° 0 mm 13 mps 754 mmHg 41%
    09:00 +14°C° 0 mm 13 mps 754 mmHg 38%
    10:00 +15°C° 0 mm 13 mps 755 mmHg 34%
    11:00 +15°C° 0 mm 13 mps 755 mmHg 30%
    12:00 +15°C° 0 mm 13 mps 755 mmHg 31%
    13:00 +15°C° 0 mm 14 mps 755 mmHg 32%
    14:00 +15°C° 0 mm 14 mps 756 mmHg 34%
    15:00 +15°C° 0 mm 13 mps 756 mmHg 35%
    16:00 +14°C° 0 mm 13 mps 756 mmHg 36%
    17:00 +14°C° 0 mm 13 mps 756 mmHg 37%
    18:00 +13°C° 0 mm 13 mps 757 mmHg 38%
    19:00 +13°C° 0 mm 12 mps 758 mmHg 39%
    20:00 +12°C° 0 mm 12 mps 758 mmHg 39%
    21:00 +10°C° 0 mm 12 mps 759 mmHg 41%
    22:00 +11°C° 0 mm 11 mps 759 mmHg 42%
    23:00 +9°C° 0 mm 11 mps 760 mmHg 43%
    Show more